COSMOS 2251 DEB, 35451

Orbit data source: Space-Track

COSMOS 2251 DEB, 35451 is space debris in LEO originally from a launch on Wed, 16 Jun 1993 UTC launched from the Plesetsk Missile And Space Complex (PKMTR). The debris from Iridium 33, an American commercial communications satellite, has been tracked extensively since its accidental collision with the defunct Russian satellite Cosmos 2251 in 2009. This event, occurring at high speed in low Earth orbit (LEO), generated thousands of pieces of space debris, significantly increasing the risk of further collisions. The Iridium 33 debris cloud has impacted space traffic management and orbital debris mitigation strategies, making it a subject of ongoing study in space situational awareness.

Loading next visibility...
Identifier
35451, 1993-036AKV
Orbit
LEO
Country
Flag of CISCIS
Related business
Manufacturer
Unknown
Mission
Spacecraft
Bus & Motor
Unknown
Mass
Unknown
Launch date (UTC)
Icon of a cake. It is the launch day of the satellite!1993-06-16 (33 years ago)
Launch vehicle
Unknown
Launch site
Plesetsk Missile And Space Complex (PKMTR)
Object type
Payload
Rocket body
Debris
Shape & HBR
Unknown shape, 0.1 m
Radar Cross Section
Small (<0.1 m²)

Expand to show TLE details & history
Last TLE update: 2 weeks ago

TLE from 2 weeks ago
0 COSMOS 2251 DEB
1 35451U 93036AKV 26151.22619250  .00491869  00000-0  27757-2 0  9998
2 35451  73.9147  87.4307 0020858 238.6583 121.2603 15.77457925700349
Epoch: 2026-05-31T05:25Z
TLE epoch observation values (Epoch: 2026-05-31T05:25:43.031Z)
Latitude
-0.00003°
Longitude
117.27048°
Altitude
347.71 km
Speed
7.696 km/s
True Right ascension
05h 49m 43s
True Declination
0° 00' 00"
Sunlit
Object was in daylight at epoch
Visualization orbit readout
Latitude
Unknown
Longitude
Unknown
Altitude
Unknown
Speed
Unknown
Apparent Right ascension
Unknown
Apparent Declination
Unknown
Sunlit
N/A
Visualization observer readout
Local Sidereal Time
21:15:42
Azimuth
Unknown
Elevation
Unknown
Doppler factor
Unknown
Orbital elements
Apogee altitude
349.129 km
Perigee altitude
321.124 km
Semi-major axis
6,713.264 km
Eccentricity
0.00209
Inclination
73.9147°
RAAN
87.4307°
Arg. of periapsis
238.6583°
True anomaly
121.46434°
Mean anomaly
121.2603°
Eccentric anomaly
121.36235°
Mean motion
3.94587 °/min
Orbital period
91.23 mins
BSTAR
0.0027757

Documentation

Showing up to 5 results
|